Tracking 19909 objects as of 22-Oct-2019
HD Live streaming from Space Station
objects crossing your sky now

IRIDIUM 33 DEB


IRIDIUM 33 DEB is no longer on orbit


NORAD ID: 34655
Int'l Code: 1997-051KG
Perigee: N/A
Apogee: N/A
Inclination: N/A
Period: N/A
Semi major axis: N/A
RCS: N/A
Launch date: September 14, 1997
Source: United States (US)
Launch site: TYURATAM MISSILE AND SPACE COMPLEX (TTMTR)
Decay date: 2012-01-07

Note: This is SATELLITE DEBRIS
aabbcc
Your satellite tracking list
Your tracking list is empty




NASA's NSSDC Master Catalog

Two Line Element Set (TLE):
1 34655U 97051KG  11363.11236354  .02085543  00000-0  78146-1 0  9998
2 34655 086.3812 050.1674 0021575 279.9507 079.9758 15.27078349137096
Source of the keplerian elements: AFSPC